Location: Neuvy Saint Sepulchre
(46.5953°N, 1.8122°E)
Time: 11:41:31
(UTC+02:00)

ISS - Pass Details

Date: 27 April 2026
Orbit: 415 x 424 km, 51.6° (Epoch: 14 April)

Event Time Altitude Azimuth Distance (km) Brightness Sun altitude
Exits shadow 04:45:26 40° 286° (WNW) 636 -3.1 -18.0°
Maximum altitude 04:46:20 55° 340° (NNW) 508 -3.3 -17.9°
Drops below altitude 10° 04:49:40 10° 60° (ENE) 1,503 0.2 -17.5°
Sets 04:51:48 0° 65° (ENE) 2,371 1.5 -17.2°
